This is the latest recevied weather packets stored in our database for station/object KA7RLM. If no packets are shown the sender has not sent any weather packets the latest 10 day(s).
| Time | Temp. | Humidity | Pressure | Rain* | Wind** | Luminosity | Snow |
|---|---|---|---|---|---|---|---|
| 1777795219 | 15° C | 76% | 1014.7 hPa | 0 mm | - | - | - |
| 1777794066 | 15.56° C | 70% | 1014.7 hPa | 0 mm | - | - | - |
| 1777793423 | 16.11° C | 70% | 1014.7 hPa | 0 mm | - | - | - |
| 1777792224 | 16.11° C | 70% | 1014.7 hPa | 0 mm | - | - | - |
| 1777786830 | 17.22° C | 66% | 1014.4 hPa | 0 mm | - | - | - |
| 1777782617 | 18.89° C | 59% | 1014 hPa | 0 mm | - | - | - |
| 1777781430 | 18.89° C | 58% | 1013.7 hPa | 0 mm | - | - | - |
| 1777779024 | 20.56° C | 55% | 1013.2 hPa | 0 mm | - | - | - |
| 1777778427 | 21.11° C | 53% | 1013 hPa | 0 mm | - | - | - |
| 1777775420 | 24.44° C | 46% | 1012.7 hPa | 0 mm | - | - | - |
| 1777774246 | 25° C | 45% | 1012.7 hPa | 0 mm | - | - | - |
| 1777770623 | 25.56° C | 45% | 1012.8 hPa | 0 mm | - | - | - |
| 1777770019 | 25° C | 46% | 1012.9 hPa | 0 mm | - | - | - |
| 1777766426 | 24.44° C | 47% | 1013.2 hPa | 0 mm | - | - | - |
| 1777762222 | 25° C | 52% | 1014.3 hPa | 0 mm | - | - | - |
| 1777756818 | 23.33° C | 55% | 1015.2 hPa | 0 mm | - | - | - |
| 1777754429 | 22.22° C | 58% | 1015.4 hPa | 0 mm | - | - | - |
| 1777748453 | 18.33° C | 68% | 1016.7 hPa | 0 mm | - | - | - |
| 1777747217 | 17.78° C | 70% | 1016.9 hPa | 0 mm | - | - | - |
| 1777744823 | 15.56° C | 78% | 1017.2 hPa | 0 mm | - | - | - |
| 1777742424 | 14.44° C | 80% | 1017.2 hPa | 0 mm | - | - | - |
| 1777741226 | 13.33° C | 84% | 1017.2 hPa | 0 mm | - | - | - |
| 1777740026 | 13.89° C | 83% | 1017.2 hPa | 0 mm | - | - | - |
| 1777737031 | 12.22° C | 88% | 1017.4 hPa | 0 mm | - | - | - |
| 1777734019 | 11.11° C | 92% | 1017.2 hPa | 0 mm | - | - | - |
* Rain latest hour (hover to see other rain measurements)
** Current wind speed in m/s (hover to see current wind gust speed)